Regional Weather Roundup
Issued by NWS Charleston, SC

Current Version | Previous Version | Graphics & Text | Print | Product List | Glossary On
Versions: 1 2 3 4 5 6 7 8 9 10 11 12 13 14 15 16 17 18 19 20 21 22 23 24 25 26 27 28 29 30 31 32 33 34 35 36 37 38 39 40 41 42 43 44 45 46 47 48 49 50
000 ASUS42 KCHS 040111 RWRCHS REGIONAL WEATHER ROUNDUP NATIONAL WEATHER SERVICE CHARLESTON SC 800 PM EST TUE MAR 03 2015 NOTE: "FAIR" INDICATES FEW OR NO CLOUDS BELOW 12,000 FEET WITH NO SIGNIFICANT WEATHER AND/OR OBSTRUCTIONS TO VISIBILITY. NOT ALL STATIONS ARE QUALITY CONTROLLED BY THE NATIONAL WEATHER SERVICE. USE DATA WITH CAUTION...ESPECIALLY DEWPOINT OBSERVATIONS. SCZ027-030-031-034>040-042>050-040200- ...SOUTHEAST SOUTH CAROLINA... CITY SKY/WX TMP DP RH WIND PRES REMARKS N CHARLESTON PTCLDY 57 52 83 CALM 30.16S WATERFRONT PRK N/A 50 N/A N/A SE6 N/A MOUNT PLEASANT FAIR 55 54 94 CALM 30.16S FOG PINOPOLIS NOT AVBL MONCKS CORNER FAIR 50 46 87 CALM 30.17R FOG SUMMERVILLE FAIR 52 50 93 N3 30.18R BEAUFORT MCAS MOCLDY 57 54 89 SE6 30.16R BEAUFORT ARPT CLOUDY 55 55 100 E5 30.16R FOG HILTON HEAD IS CLOUDY 54 52 94 CALM 30.18R FOG WALTERBORO CLEAR 55 52 88 CALM 30.17R ALLENDALE FAIR 54 52 94 CALM 30.14F ...SOUTHERN MIDLANDS AND PEE DEE... CITY SKY/WX TMP DP RH WIND PRES REMARKS GEORGETOWN NOT AVBL KINGSTREE NOT AVBL ORANGEBURG CLOUDY 46 43 89 NE3 30.17S FOG BARNWELL CLOUDY 52 52 100 E6 30.16S FOG AIKEN FOG 46 46 100 NE5 30.18S VSB 3/4 MANNING CLOUDY N/A N/A N/A CALM 30.18R COLUMBIA CLOUDY 45 43 93 E5 30.17S FOG SUMTER CLOUDY 41 40 96 E3 30.16S FLORENCE CLOUDY 42 39 89 CALM 30.19R FOG MYRTLE BEACH CLOUDY 48 45 87 NW7 30.19F FOG N MYRTLE BEACH CLOUDY 47 46 97 NE3 30.16F FOG $$ GAZ063-065-086>088-099>101-113>116-118-119-134>141-150-040200- ...SOUTHEAST GEORGIA... CITY SKY/WX TMP DP RH WIND PRES REMARKS SAVANNAH ARPT PTCLDY 57 53 86 E9 30.15R HUNTER AAF PTCLDY 58 58 99 E7 30.13R FORT STEWART CLEAR 64 60 88 SE7 30.12R STATESBORO CLEAR 65 65 100 CALM 30.12S SYLVANIA CLEAR 58 58 99 NE3 30.14S FOG CLAXTON FAIR 68 64 88 SE3 30.12S ...CSRA...CENTRAL AND FAR SOUTHEAST GEORGIA... CITY SKY/WX TMP DP RH WIND PRES REMARKS THOMSON CLOUDY 52 52 100 CALM 30.19S VSB 1/4 AUGUSTA-BUSH CLOUDY 52 51 97 E5 30.15S FOG AUGUSTA-DANIEL CLOUDY 54 52 93 E5 30.15S FOG SWAINSBORO NOT AVBL VIDALIA CLEAR 70 64 83 SE3 30.11R EASTMAN FAIR 67 65 94 CALM 30.12S HAZLEHURST FAIR 70 65 83 S3 30.10R ALMA LGT RAIN 70 64 81 CALM 30.11R WAYCROSS PTCLDY 76 69 80 SE7 30.11R JESUP FAIR 72 68 88 SE3 30.13R BAXLEY CLOUDY 73 66 78 CALM 30.11R BRUNSWICK CLEAR 64 61 88 CALM 30.15S SAINT SIMONS CLEAR 61 59 93 SE5 30.15R $$ SCZ027-028-034-036>038-045-046-048>050-GAZ119-141-040200- ...LAKE AND SUPPLEMENTAL COASTAL OBSERVATIONS... STATION/POSITION TIME TEMP WIND PRES WAVE SWELL AIR SEA DIR/SP/G HT/PER HT/PER/DIR (UTC) (F) (DEG/KT/KT) (MB) (FT/S) (FT/S/D) UPR LAKE MARION NOT AVBL WINYAH BAY NOT AVBL LAKE MURRAY NOT AVBL ACE BASIN NERRS NOT AVBL FORT PULASKI 0000 51 50 70/ 6/ 7 1021.4R SAPELO ISLAND 0000 57 90/ 3 1020.0S $$ ANZ835-935-AMZ111-154-330-350-352-354-370-450-454-472-040200- ...C-MAN AND BUOY OBSERVATIONS... STATION/POSITION TIME TEMP WIND PRES WAVE SWELL AIR SEA DIR/SP/G HT/PER HT/PER/DIR (UTC) (F) (DEG/KT/KT) (MB) (FT/S) (FT/S/D) BUOY 41004 0050 61 68 350/ 6/ 8 1021.3R 5/ 8 5/ 8 BUOY 41008 0050 60 55 120/ 6/ 8 1020.6R 3/ 9 3/110/ 9 FOLLY BEACH CMAN 0100 50 70/ 4/ 4 1022.0R CAPERS NEARSHORE NOT AVBL FRIPP NEARSHORE 0000 50 100/ 6/ 10 1020.4S STATION/POSITION TIME TEMP WIND PRES WAVE SWELL AIR SEA DIR/SP/G HT/PER HT/PER/DIR (UTC) (F) (DEG/KT/KT) (MB) (FT/S) (FT/S/D) 5E ST. MARYS GA 0021 57 N/A 2/ 8 FRYING PAN BUOY 0050 66 61 180/ 12/ 14 1021.7R 6/ 9 5/110/ 9 BUOY 41025 NOT AVBL CAPE LOOKOUT NC 0000 56 150/ 15/ 16 1020.9F BUOY 41002 0050 68 72 160/ 17/ 21 1024.5F 6/ 9 3/ 80/ 9 BUOY 41010 0020 73 75 130/ 10/ 12 1022.4R ST AUGUSTINE FL 0100 61 160/ 8/ 8 1021.7R $$

USA.gov is the U.S. government's official web portal to all federal, state and local government web resources and services.